| time (UTC) | temp C | wind direction | speed KPH | gust KPH | rain 1hr cm | rain 24hr cm | rain mn cm | humidity % | barometer mb |
| 20260504150252 | 17 | 127 | 3.2 | 8.0 | 0.00 | 0.00 | 0.00 | 43 | 1012.1 |
| 20260504141250 | 16 | 138 | 0.0 | 6.4 | 0.00 | 0.00 | 0.00 | 52 | 1012.4 |
| 20260504140751 | 16 | 80 | 1.6 | 4.8 | 0.00 | 0.00 | 0.00 | 48 | 1012.4 |
| 20260504140251 | 16 | 182 | 1.6 | 4.8 | 0.00 | 0.00 | 0.00 | 52 | 1012.4 |
| 20260504130749 | 14 | 140 | 0.0 | 6.4 | 0.00 | 0.00 | 0.00 | 53 | 1012.9 |
| 20260504130247 | 14 | 137 | 1.6 | 6.4 | 0.00 | 0.00 | 0.00 | 51 | 1013.0 |
| 20260504120246 | 10 | 266 | 0.0 | 3.2 | 0.00 | 0.00 | 0.00 | 56 | 1013.1 |
| 20260504110248 | -17 | 0.0 | 0.0 | 0.00 | 0.00 | 0.00 | 1013.2 | ||
| 20260504110243 | -17 | 0.0 | 0.0 | 0.00 | 0.00 | 0.00 | 1013.1 | ||
| 20260504100231 | -17 | 0.0 | 0.0 | 0.00 | 0.00 | 0.00 | 1012.8 | ||
| 20260504081710 | -17 | 0.0 | 0.0 | 0.00 | 0.00 | 0.00 | 1012.4 | ||
| 20260504081213 | -17 | 0.0 | 0.0 | 0.00 | 0.00 | 0.00 | 1012.4 | ||
| 20260504081209 | -17 | 0.0 | 0.0 | 0.00 | 0.00 | 0.00 | 1012.4 | ||
| 20260504080208 | -17 | 0.0 | 0.0 | 0.00 | 0.00 | 0.00 | 1012.3 | ||
| 20260504070155 | -17 | 0.0 | 0.0 | 0.00 | 0.00 | 0.00 | 1012.1 | ||
| 20260504060147 | 3 | 234 | 0.0 | 0.0 | 0.00 | 0.00 | 0.00 | 100 | 1012.0 |
| 20260504050644 | 3 | 235 | 0.0 | 0.0 | 0.00 | 0.00 | 0.00 | 100 | 1011.8 |
| 20260504050145 | 3 | 235 | 0.0 | 0.0 | 0.00 | 0.00 | 0.00 | 100 | 1011.8 |
| 20260504045643 | 3 | 235 | 0.0 | 0.0 | 0.00 | 0.00 | 0.00 | 100 | 1011.8 |
| 20260504045145 | 3 | 235 | 0.0 | 0.0 | 0.00 | 0.00 | 0.00 | 100 | 1011.8 |
| 20260504044645 | 3 | 235 | 0.0 | 0.0 | 0.00 | 0.00 | 0.00 | 100 | 1011.7 |
| 20260504044144 | 3 | 235 | 0.0 | 0.0 | 0.00 | 0.00 | 0.00 | 100 | 1011.9 |
| 20260504043648 | 3 | 234 | 0.0 | 0.0 | 0.00 | 0.00 | 0.00 | 100 | 1011.7 |
| 20260504043643 | 3 | 235 | 0.0 | 0.0 | 0.00 | 0.00 | 0.00 | 100 | 1011.8 |
| 20260504042643 | 4 | 235 | 0.0 | 0.0 | 0.00 | 0.00 | 0.00 | 100 | 1011.6 |
| 20260504042142 | 4 | 235 | 0.0 | 0.0 | 0.00 | 0.00 | 0.00 | 4 | 1011.7 |
| 20260504041643 | 4 | 235 | 0.0 | 0.0 | 0.00 | 0.00 | 0.00 | 7 | 1011.7 |
| 20260504041147 | 4 | 235 | 0.0 | 0.0 | 0.00 | 0.00 | 0.00 | 12 | 1011.7 |
| 20260504041143 | 4 | 235 | 0.0 | 0.0 | 0.00 | 0.00 | 0.00 | 12 | 1011.7 |
| 20260504040142 | 4 | 235 | 0.0 | 0.0 | 0.00 | 0.00 | 0.00 | 14 | 1011.6 |
| 20260504035641 | 4 | 235 | 0.0 | 0.0 | 0.00 | 0.00 | 0.00 | 18 | 1011.6 |
| 20260504035141 | 5 | 235 | 0.0 | 0.0 | 0.00 | 0.00 | 0.00 | 21 | 1011.6 |
| 20260504034641 | 5 | 235 | 0.0 | 0.0 | 0.00 | 0.00 | 0.00 | 25 | 1011.6 |
| 20260504034142 | 5 | 235 | 0.0 | 0.0 | 0.00 | 0.00 | 0.00 | 26 | 1011.6 |
| 20260504033641 | 5 | 235 | 0.0 | 0.0 | 0.00 | 0.00 | 0.00 | 29 | 1011.6 |
| 20260504033142 | 5 | 235 | 0.0 | 0.0 | 0.00 | 0.00 | 0.00 | 32 | 1011.6 |
| 20260504032641 | 5 | 235 | 0.0 | 0.0 | 0.00 | 0.00 | 0.00 | 34 | 1011.5 |
| 20260504032141 | 5 | 235 | 0.0 | 0.0 | 0.00 | 0.00 | 0.00 | 34 | 1011.5 |
| 20260504031640 | 5 | 235 | 0.0 | 0.0 | 0.00 | 0.00 | 0.00 | 37 | 1011.5 |
| 20260504031140 | 5 | 235 | 0.0 | 0.0 | 0.00 | 0.00 | 0.00 | 41 | 1011.5 |
| 20260504030639 | 5 | 235 | 0.0 | 0.0 | 0.00 | 0.00 | 0.00 | 45 | 1011.4 |
| 20260504030140 | 5 | 235 | 0.0 | 0.0 | 0.00 | 0.00 | 0.00 | 49 | 1011.5 |
| 20260504025645 | 6 | 235 | 0.0 | 0.0 | 0.00 | 0.00 | 0.00 | 51 | 1011.5 |
| 20260504025641 | 5 | 235 | 0.0 | 0.0 | 0.00 | 0.00 | 0.00 | 50 | 1011.4 |
| 20260504025258 | 6 | 235 | 0.0 | 0.0 | 0.00 | 0.00 | 0.00 | 52 | 1011.5 |
| 20260504024140 | 6 | 235 | 0.0 | 0.0 | 0.00 | 0.00 | 0.00 | 54 | 1011.5 |
| 20260504023639 | 6 | 234 | 0.0 | 0.0 | 0.00 | 0.00 | 0.00 | 57 | 1011.5 |
| 20260504023139 | 6 | 235 | 0.0 | 0.0 | 0.00 | 0.00 | 0.00 | 58 | 1011.5 |
| 20260504022639 | 6 | 235 | 0.0 | 0.0 | 0.00 | 0.00 | 0.00 | 57 | 1011.5 |
| 20260504022145 | 6 | 235 | 0.0 | 0.0 | 0.00 | 0.00 | 0.00 | 60 | 1011.4 |
| 20260504022139 | 6 | 235 | 0.0 | 0.0 | 0.00 | 0.00 | 0.00 | 58 | 1011.5 |
| 20260504021139 | 6 | 234 | 0.0 | 0.0 | 0.00 | 0.00 | 0.00 | 61 | 1011.5 |
| 20260504020638 | 7 | 235 | 0.0 | 0.0 | 0.00 | 0.00 | 0.00 | 61 | 1011.5 |
| 20260504020138 | 7 | 235 | 0.0 | 0.0 | 0.00 | 0.00 | 0.00 | 61 | 1011.4 |
| 20260504015638 | 7 | 235 | 0.0 | 0.0 | 0.00 | 0.00 | 0.00 | 61 | 1011.5 |
| 20260504015138 | 7 | 235 | 0.0 | 0.0 | 0.00 | 0.00 | 0.00 | 60 | 1011.4 |
| 20260504014644 | 7 | 235 | 0.0 | 0.0 | 0.00 | 0.00 | 0.00 | 59 | 1011.4 |
| 20260504014639 | 7 | 235 | 0.0 | 0.0 | 0.00 | 0.00 | 0.00 | 59 | 1011.3 |
| 20260504013637 | 8 | 234 | 0.0 | 0.0 | 0.00 | 0.00 | 0.00 | 59 | 1011.3 |
| 20260504013142 | 8 | 235 | 0.0 | 0.0 | 0.00 | 0.00 | 0.00 | 58 | 1011.2 |
| 20260504013137 | 8 | 235 | 0.0 | 0.0 | 0.00 | 0.00 | 0.00 | 59 | 1011.2 |
| 20260504012142 | 8 | 235 | 0.0 | 0.0 | 0.00 | 0.00 | 0.00 | 55 | 1011.1 |
| 20260504012137 | 8 | 235 | 0.0 | 0.0 | 0.00 | 0.00 | 0.00 | 56 | 1011.2 |
| 20260504011137 | 8 | 235 | 0.0 | 0.0 | 0.00 | 0.00 | 0.00 | 53 | 1011.0 |
| 20260504010636 | 9 | 235 | 0.0 | 0.0 | 0.00 | 0.00 | 0.00 | 51 | 1010.9 |
| 20260504010136 | 10 | 235 | 0.0 | 0.0 | 0.00 | 0.00 | 0.00 | 49 | 1010.8 |
| 20260504005635 | 10 | 235 | 0.0 | 0.0 | 0.00 | 0.00 | 0.00 | 48 | 1010.7 |
| 20260504005134 | 10 | 234 | 0.0 | 0.0 | 0.00 | 0.00 | 0.00 | 46 | 1010.7 |
| 20260504004641 | 11 | 235 | 0.0 | 0.0 | 0.00 | 0.00 | 0.00 | 44 | 1010.6 |
| 20260504004636 | 10 | 234 | 0.0 | 0.0 | 0.00 | 0.00 | 0.00 | 45 | 1010.6 |
| 20260504004256 | 11 | 235 | 0.0 | 0.0 | 0.00 | 0.00 | 0.00 | 43 | 1010.5 |
| 20260504003140 | 11 | 235 | 0.0 | 0.0 | 0.00 | 0.00 | 0.00 | 41 | 1010.3 |
| 20260504003134 | 11 | 235 | 0.0 | 0.0 | 0.00 | 0.00 | 0.00 | 42 | 1010.4 |
| 20260504002134 | 12 | 235 | 0.0 | 0.0 | 0.00 | 0.00 | 0.00 | 40 | 1010.3 |
| 20260504001634 | 12 | 235 | 0.0 | 0.0 | 0.00 | 0.00 | 0.00 | 39 | 1010.3 |
| 20260504001134 | 12 | 235 | 0.0 | 0.0 | 0.00 | 0.00 | 0.00 | 38 | 1010.2 |
| 20260504000634 | 12 | 234 | 0.0 | 0.0 | 0.00 | 0.00 | 0.00 | 37 | 1010.1 |
| 20260504000135 | 12 | 234 | 0.0 | 0.0 | 0.00 | 0.00 | 0.00 | 37 | 1009.9 |
| 20260503235634 | 12 | 234 | 0.0 | 1.6 | 0.00 | 0.00 | 0.00 | 36 | 1009.9 |
| 20260503235134 | 12 | 234 | 0.0 | 1.6 | 0.00 | 0.00 | 0.00 | 37 | 1009.8 |
| 20260503234633 | 12 | 75 | 0.0 | 4.8 | 0.00 | 0.00 | 0.00 | 35 | 1009.8 |
| 20260503234133 | 12 | 75 | 0.0 | 4.8 | 0.00 | 0.00 | 0.00 | 35 | 1009.7 |
| 20260503233638 | 13 | 231 | 0.0 | 1.6 | 0.00 | 0.00 | 0.00 | 36 | 1009.6 |
| 20260503233633 | 12 | 231 | 0.0 | 1.6 | 0.00 | 0.00 | 0.00 | 36 | 1009.6 |
| 20260503232633 | 13 | 338 | 0.0 | 3.2 | 0.00 | 0.00 | 0.00 | 36 | 1009.5 |
| 20260503232134 | 13 | 338 | 0.0 | 3.2 | 0.00 | 0.00 | 0.00 | 35 | 1009.5 |
| 20260503231639 | 13 | 228 | 0.0 | 1.6 | 0.00 | 0.00 | 0.00 | 33 | 1009.4 |
| 20260503231634 | 13 | 231 | 0.0 | 1.6 | 0.00 | 0.00 | 0.00 | 33 | 1009.3 |
| 20260503230637 | 13 | 250 | 1.6 | 4.8 | 0.00 | 0.00 | 0.00 | 32 | 1009.2 |
| 20260503230632 | 13 | 243 | 0.0 | 4.8 | 0.00 | 0.00 | 0.00 | 33 | 1009.4 |
| 20260503225632 | 13 | 278 | 0.0 | 9.7 | 0.00 | 0.00 | 0.00 | 31 | 1009.2 |
| 20260503225132 | 13 | 248 | 1.6 | 9.7 | 0.00 | 0.00 | 0.00 | 31 | 1009.1 |
| 20260503224631 | 14 | 250 | 0.0 | 6.4 | 0.00 | 0.00 | 0.00 | 31 | 1009.2 |
| 20260503224132 | 14 | 186 | 0.0 | 6.4 | 0.00 | 0.00 | 0.00 | 32 | 1009.1 |
| 20260503223631 | 14 | 255 | 0.0 | 4.8 | 0.00 | 0.00 | 0.00 | 31 | 1009.1 |
| 20260503223129 | 14 | 248 | 0.0 | 9.7 | 0.00 | 0.00 | 0.00 | 32 | 1009.1 |
| 20260503222631 | 14 | 233 | 0.0 | 9.7 | 0.00 | 0.00 | 0.00 | 32 | 1009.1 |
| 20260503222252 | 14 | 305 | 1.6 | 19.3 | 0.00 | 0.00 | 0.00 | 31 | 1009.1 |
| 20260503222135 | 14 | 316 | 1.6 | 19.3 | 0.00 | 0.00 | 0.00 | 31 | 1009.1 |
| 20260503222130 | 14 | 306 | 1.6 | 8.0 | 0.00 | 0.00 | 0.00 | 30 | 1009.1 |
| 20260503220631 | 14 | 38 | 3.2 | 9.7 | 0.00 | 0.00 | 0.00 | 32 | 1009.2 |
| 20260503220135 | 14 | 179 | 0.0 | 11.3 | 0.00 | 0.00 | 0.00 | 31 | 1009.1 |
| 20260503220130 | 14 | 138 | 0.0 | 6.4 | 0.00 | 0.00 | 0.00 | 34 | 1009.0 |
| 20260503215130 | 15 | 251 | 1.6 | 11.3 | 0.00 | 0.00 | 0.00 | 32 | 1009.1 |
| 20260503214629 | 15 | 226 | 0.0 | 9.7 | 0.00 | 0.00 | 0.00 | 32 | 1009.1 |
| 20260503214129 | 15 | 238 | 0.0 | 9.7 | 0.00 | 0.00 | 0.00 | 32 | 1009.1 |
| 20260503213629 | 15 | 268 | 1.6 | 6.4 | 0.00 | 0.00 | 0.00 | 33 | 1009.1 |
| 20260503213129 | 14 | 338 | 0.0 | 6.4 | 0.00 | 0.00 | 0.00 | 33 | 1009.0 |
| 20260503212629 | 14 | 154 | 1.6 | 6.4 | 0.00 | 0.00 | 0.00 | 34 | 1009.0 |
| 20260503212129 | 15 | 195 | 0.0 | 6.4 | 0.00 | 0.00 | 0.00 | 33 | 1008.9 |
| 20260503211629 | 15 | 338 | 0.0 | 4.8 | 0.00 | 0.00 | 0.00 | 35 | 1009.0 |
| 20260503211128 | 15 | 293 | 0.0 | 4.8 | 0.00 | 0.00 | 0.00 | 35 | 1008.9 |
| 20260503210629 | 15 | 282 | 0.0 | 4.8 | 0.00 | 0.00 | 0.00 | 34 | 1009.0 |
| 20260503210128 | 15 | 314 | 0.0 | 6.4 | 0.00 | 0.00 | 0.00 | 34 | 1009.0 |
| 20260503205629 | 15 | 336 | 0.0 | 6.4 | 0.00 | 0.00 | 0.00 | 34 | 1009.0 |
| 20260503205127 | 15 | 247 | 0.0 | 11.3 | 0.00 | 0.00 | 0.00 | 34 | 1008.9 |
| 20260503204627 | 15 | 269 | 3.2 | 11.3 | 0.00 | 0.00 | 0.00 | 35 | 1009.0 |
| 20260503204127 | 15 | 164 | 0.0 | 3.2 | 0.00 | 0.00 | 0.00 | 35 | 1009.0 |
| 20260503203627 | 15 | 135 | 0.0 | 9.7 | 0.00 | 0.00 | 0.00 | 37 | 1009.0 |
| 20260503203127 | 15 | 131 | 0.0 | 9.7 | 0.00 | 0.00 | 0.00 | 37 | 1008.9 |
| 20260503202626 | 15 | 149 | 0.0 | 3.2 | 0.00 | 0.00 | 0.00 | 39 | 1009.1 |
| 20260503202126 | 15 | 142 | 0.0 | 4.8 | 0.00 | 0.00 | 0.00 | 38 | 1008.9 |
| 20260503201626 | 15 | 295 | 0.0 | 4.8 | 0.00 | 0.00 | 0.00 | 38 | 1008.9 |
| 20260503201125 | 15 | 231 | 0.0 | 6.4 | 0.00 | 0.00 | 0.00 | 36 | 1008.9 |
| 20260503200626 | 15 | 159 | 0.0 | 6.4 | 0.00 | 0.00 | 0.00 | 38 | 1009.0 |
| 20260503200131 | 15 | 324 | 3.2 | 9.7 | 0.00 | 0.00 | 0.00 | 36 | 1009.1 |
| 20260503200126 | 15 | 300 | 0.0 | 9.7 | 0.00 | 0.00 | 0.00 | 36 | 1009.1 |
| 20260503195125 | 15 | 202 | 0.0 | 11.3 | 0.00 | 0.00 | 0.00 | 35 | 1009.1 |
| 20260503194626 | 15 | 168 | 0.0 | 11.3 | 0.00 | 0.00 | 0.00 | 39 | 1009.1 |
| 20260503194125 | 15 | 35 | 1.6 | 6.4 | 0.00 | 0.00 | 0.00 | 35 | 1009.3 |
| 20260503193625 | 15 | 296 | 0.0 | 9.7 | 0.00 | 0.00 | 0.00 | 37 | 1009.3 |
| 20260503193125 | 15 | 300 | 1.6 | 9.7 | 0.00 | 0.00 | 0.00 | 36 | 1009.4 |
| 20260503192623 | 14 | 258 | 1.6 | 4.8 | 0.00 | 0.00 | 0.00 | 38 | 1009.3 |
| 20260503192130 | 15 | 226 | 0.0 | 9.7 | 0.00 | 0.00 | 0.00 | 36 | 1009.6 |
| 20260503192125 | 14 | 241 | 0.0 | 9.7 | 0.00 | 0.00 | 0.00 | 37 | 1009.5 |
| 20260503191125 | 15 | 310 | 0.0 | 11.3 | 0.00 | 0.00 | 0.00 | 37 | 1009.6 |
| 20260503190629 | 14 | 265 | 0.0 | 8.0 | 0.00 | 0.00 | 0.00 | 42 | 1009.7 |
| 20260503190623 | 14 | 317 | 3.2 | 11.3 | 0.00 | 0.00 | 0.00 | 38 | 1009.5 |
| 20260503185629 | 14 | 323 | 4.8 | 16.1 | 0.00 | 0.00 | 0.00 | 36 | 1009.6 |
| 20260503185624 | 14 | 171 | 1.6 | 16.1 | 0.00 | 0.00 | 0.00 | 37 | 1009.6 |
| 20260503184623 | 14 | 234 | 0.0 | 19.3 | 0.00 | 0.00 | 0.00 | 39 | 1009.6 |
| 20260503184123 | 14 | 97 | 1.6 | 19.3 | 0.00 | 0.00 | 0.00 | 39 | 1009.4 |
| 20260503183624 | 14 | 296 | 1.6 | 16.1 | 0.00 | 0.00 | 0.00 | 38 | 1009.5 |
| 20260503183122 | 14 | 265 | 1.6 | 16.1 | 0.00 | 0.00 | 0.00 | 41 | 1009.6 |
| 20260503182624 | 14 | 219 | 0.0 | 8.0 | 0.00 | 0.00 | 0.00 | 39 | 1009.6 |
| 20260503182128 | 14 | 142 | 0.0 | 4.8 | 0.00 | 0.00 | 0.00 | 40 | 1009.6 |
| 20260503182123 | 14 | 248 | 1.6 | 8.0 | 0.00 | 0.00 | 0.00 | 37 | 1009.6 |
| 20260503181122 | 14 | 279 | 0.0 | 19.3 | 0.00 | 0.00 | 0.00 | 39 | 1009.7 |
| 20260503180622 | 14 | 316 | 0.0 | 19.3 | 0.00 | 0.00 | 0.00 | 41 | 1009.6 |
| 20260503180123 | 14 | 274 | 1.6 | 6.4 | 0.00 | 0.00 | 0.00 | 39 | 1009.5 |
| 20260503175627 | 15 | 305 | 0.0 | 16.1 | 0.00 | 0.00 | 0.00 | 41 | 1009.3 |
| 20260503175622 | 15 | 288 | 0.0 | 16.1 | 0.00 | 0.00 | 0.00 | 37 | 1009.6 |
| 20260503174621 | 14 | 227 | 0.0 | 8.0 | 0.00 | 0.00 | 0.00 | 41 | 1009.4 |
| 20260503174121 | 13 | 109 | 1.6 | 11.3 | 0.00 | 0.00 | 0.00 | 38 | 1009.3 |
| 20260503173621 | 13 | 231 | 0.0 | 11.3 | 0.00 | 0.00 | 0.00 | 37 | 1009.5 |
| 20260503173122 | 14 | 240 | 1.6 | 4.8 | 0.00 | 0.00 | 0.00 | 37 | 1009.6 |
| 20260503172621 | 13 | 293 | 1.6 | 14.5 | 0.00 | 0.00 | 0.00 | 40 | 1009.6 |
| 20260503172126 | 13 | 255 | 3.2 | 14.5 | 0.00 | 0.00 | 0.00 | 35 | 1009.6 |
| 20260503172121 | 13 | 258 | 3.2 | 14.5 | 0.00 | 0.00 | 0.00 | 37 | 1009.5 |
| 20260503171120 | 13 | 224 | 3.2 | 14.5 | 0.00 | 0.00 | 0.00 | 35 | 1009.6 |
| 20260503170619 | 14 | 228 | 0.0 | 4.8 | 0.00 | 0.00 | 0.00 | 36 | 1009.5 |
| 20260503170124 | 13 | 214 | 0.0 | 1.6 | 0.00 | 0.00 | 0.00 | 46 | 1009.8 |
| 20260503170119 | 15 | 337 | 0.0 | 1.6 | 0.00 | 0.00 | 0.00 | 42 | 1009.6 |
| 20260503160118 | 11 | 223 | 0.0 | 3.2 | 0.00 | 0.00 | 0.00 | 47 | 1010.1 |